Location: Gettysburg
(39.8310°N, 77.2310°W)
Time: 06:52:15
(UTC-04:00)

ATLAS 2AS CENTAUR R/B - Visible Passes

Search period start: 29 June 2016 00:00
Search period end: 09 July 2016 00:00
Orbit: 904 x 1308 km, 63.7° (Epoch: 24 June)

Date Brightness Start Highest point End Pass type
(mag) Time Alt. Az. Time Alt. Az. Time Alt. Az.
29 Jun 3.5 00:05:57 10° SW 00:13:21 58° NW 00:21:19 10° NNE visible
29 Jun 5.3 02:00:53 10° WNW 02:06:15 19° NNW 02:11:48 10° NNE visible
29 Jun 5.7 03:58:15 10° NNW 04:01:04 12° N 04:03:53 10° NNE visible
29 Jun 4.1 21:33:23 10° SSE 21:38:26 20° ESE 21:43:44 10° ENE visible
29 Jun 3.0 23:20:56 10° SW 23:28:25 84° WNW 23:36:32 10° NNE visible
30 Jun 4.9 01:14:29 10° W 01:20:41 25° NW 01:27:09 10° NNE visible
30 Jun 5.6 03:12:01 10° NNW 03:15:05 12° N 03:18:09 10° NNE visible
30 Jun 5.6 05:05:13 10° NNW 05:10:04 16° NNE 05:14:51 10° ENE visible
30 Jun 2.9 22:36:21 10° SSW 22:43:39 66° ESE 22:51:36 10° NE visible
01 Jul 4.5 00:28:27 10° WSW 00:35:17 34° NW 00:42:30 10° NNE visible
01 Jul 5.6 02:25:18 10° NW 02:29:09 14° NNW 02:33:04 10° NNE visible
01 Jul 5.7 04:20:24 10° NNW 04:24:14 14° NNE 04:28:03 10° NE visible
01 Jul 3.3 21:52:15 10° S 21:59:05 43° ESE 22:06:28 10° NE visible
01 Jul 3.9 23:42:48 10° WSW 23:50:03 47° NW 23:57:49 10° NNE visible
02 Jul 5.5 01:38:31 10° WNW 01:43:20 17° NNW 01:48:16 10° NNE visible
02 Jul 5.8 03:35:16 10° NNW 03:38:18 12° N 03:41:19 10° NNE visible
02 Jul 3.8 21:08:44 10° SSE 21:14:41 27° ESE 21:20:59 10° NE visible
02 Jul 3.3 22:57:33 10° SW 23:05:01 68° NW 23:13:05 10° NNE visible
03 Jul 5.3 00:51:56 10° WNW 00:57:40 21° NNW 01:03:36 10° NNE visible
03 Jul 5.8 02:49:30 10° NNW 02:52:19 12° N 02:55:09 10° NNE visible
03 Jul 5.6 04:41:42 10° NNW 04:47:10 19° NNE 04:52:30 10° ENE visible
03 Jul 2.9 22:12:43 10° SSW 22:20:09 84° ESE 22:28:15 10° NE visible
04 Jul 4.9 00:05:41 10° W 00:12:10 28° NW 00:18:57 10° NNE visible
04 Jul 5.8 02:03:00 10° NW 02:06:21 13° N 02:09:44 10° NNE visible
04 Jul 5.8 03:56:58 10° NNW 04:01:24 15° NNE 04:05:47 10° NE visible
04 Jul 3.1 21:28:18 10° S 21:35:28 56° ESE 21:43:14 10° NE visible
04 Jul 4.4 23:19:48 10° WSW 23:26:49 38° NW 23:34:18 10° NNE visible
05 Jul 5.7 01:16:12 10° NW 01:20:28 15° NNW 01:24:47 10° NNE visible
05 Jul 5.9 03:12:04 10° NNW 03:15:31 13° N 03:18:58 10° NE visible
05 Jul 5.3 05:02:47 10° NNW 05:09:41 29° NE 05:16:18 10° E visible
05 Jul 3.8 22:34:18 10° SW 22:41:40 54° NW 22:49:36 10° NNE visible
06 Jul 5.5 00:29:29 10° WNW 00:34:42 18° NNW 00:40:03 10° NNE visible
06 Jul 5.9 02:26:43 10° NNW 02:29:34 12° N 02:32:25 10° NNE visible
06 Jul 5.6 04:18:09 10° NNW 04:24:11 22° NNE 04:30:03 10° ENE visible
06 Jul 3.2 21:49:13 10° SW 21:56:42 79° NW 22:04:49 10° NNE visible
06 Jul 5.2 23:43:02 10° W 23:49:06 24° NNW 23:55:23 10° NNE visible
07 Jul 5.9 01:40:37 10° NNW 01:43:35 12° N 01:46:33 10° NNE visible
07 Jul 5.8 03:33:29 10° NNW 03:38:31 17° NNE 03:43:29 10° ENE visible
07 Jul 3.0 21:04:33 10° SSW 21:11:55 72° ESE 21:19:55 10° NE visible
07 Jul 4.8 22:56:56 10° W 23:03:39 32° NW 23:10:46 10° NNE visible
08 Jul 5.9 00:53:56 10° NW 00:57:38 13° NNW 01:01:22 10° NNE visible
08 Jul 5.9 02:48:42 10° NNW 02:52:43 14° NNE 02:56:42 10° NE visible
08 Jul 4.9 04:39:15 10° NNW 04:46:33 35° NE 04:53:30 10° ESE visible
08 Jul 4.3 22:11:12 10° WSW 22:18:24 44° NW 22:26:05 10° NNE visible
